Погода в Большой Ирбе

Россия / Красноярский край     54°04′52″N   92°56′12″E
темп.,
°C
ветер,
м/с
пор.,
м/с
влажн.,
%
обл.,
%
осадки,
мм/ч
давл.,
гПа
погр.,
м
19 мая, ср
ср1901:00+9ю119795 0.2 100630
04:00+8вюв1198100 0.2 100520
07:00+9св1197100 0.2 1004121
10:00+9ссз0196100 1.1 1003157
13:00+9с1393100 1.6 1003326
16:00+8с2595100 4.3 1002377
19:00+7зсз1396100 7.9 1004155
22:00+7з3890100 0.4 1004215
20 мая, чт
чт2001:00+6ссз3888100 0.5 1005451
04:00+5з1192100 0.4 100517
07:00+6зсз138598 0.5 1006287
10:00+9с235581 0.0 10051535
13:00+11ссз3438100 0.0 10042208
16:00+10ссз344688 0.0 10061791
19:00+6зсз6968100 0.3 1009612
22:00+5сз51070100 0.0 1011430
21 мая, пт
пт2101:00+4сз4973100 0.0 1012417
04:00+4зсз4971100 0.0 1014428
07:00+4сз4969100 0.0 1017639
10:00+7сз5756100 0.0 10181463
13:00+8сз6757100 0.1 10181447
16:00+9сз5656100 0.0 10191458
19:00+8сз476499 0.1 1021539
22:00+4сз2279100 0.0 102421
22 мая, сб
сб2201:00+4зюз1182100 0.0 102515
04:00+2ю119650 0.5 102712
07:00+4ю128979 0.5 1028222
10:00+9зюз2464100 0.7 1027840
13:00+12зсз463898 1.2 10262472
16:00+12зсз454098 0.0 10252184
19:00+10зсз245994 0.1 1026170
22:00+6юз117785 0.1 102811
23 мая, вс
вс2301:00+6ююв2387100 0.1 1028101
04:00+5ююв2391100 0.0 1028109
07:00+6ю138393 0.1 1028245
10:00+7ю2585100 0.3 1028490
13:00+8ююв1483100 0.4 1028369
16:00+11ююв246898 0.0 1027706
19:00+9юв2481100 0.0 1027144
22:00+7в2394100 0.0 102781